Tracking 35275 objects as of 8-Sep-2026
HD Live streaming from Space Station
objects crossing your sky now

COSMOS 744 DEB


COSMOS 744 DEB is no longer on orbit


NORAD ID: 8365
Int'l Code: 1975-095G
Launch date: October 1, 1975
Source: Commonwealth of Independent States (former USSR) (CIS)
Launch site: TYURATAM MISSILE AND SPACE COMPLEX (TTMTR)
Decay date: 1975-10-15

Note: This is SATELLITE DEBRIS
Your satellite tracking list
Your tracking list is empty




NASA's NSSDC Master Catalog

Two Line Element Set (TLE):
1 08365U 75095  G 75288.08014391  .33390453 +00000-0 +00000-0 0  9994
2 08365 071.3209 143.0565 0019553 035.9214 324.3284 16.39830504002217
Source of the keplerian elements: AFSPC